User: anonymous   Login
Location: N�rnberg
(49.4471°N, 11.0632°E)
Time: 15:52:12
(UTC+02:00)
Language:

METEOR M2 - Orbit

View from above orbital plane
View from above orbital plane
View from above satellite
View from above satellite

Ground track
Ground track

The orbit is defined by the following mean orbital elements,

1 40069U          26101.27456360 +.00000000 +00000-0 +27446-3 0 00001
2 40069  98.5075  79.4019 0004759 223.9060 136.1740 14.21443680    07
Epoch (UTC): 11 April 2026 06:35:22
Eccentricity: 0.0004759
inclination: 98.5075°
perigee height: 817 km
apogee height: 824 km
right ascension of ascending node: 79.4019°
argument of perigee: 223.9060°
revolutions per day: 14.21443680
mean anomaly at epoch: 136.1740°

The dashed part of the orbit path shows where the satellite is in the earth's shadow,  

DLR